Simultaneous Nadir Overpasses (SNOs) Predictions

Prediction of SNOs between LANDSAT-8 and METOP-A Satellite Orbit:

Table of predicted SNOs for the next 14.0 days since TLE Epoch: 6/15/2018
Index Date (LANDSAT-8) Time (LANDSAT-8) Lat,Lon (LANDSAT-8) SZA (LANDSAT-8 ) Date (METOP-A) Time (METOP-A) Lat,Lon (METOP-A) SZA (METOP-A ) Distance(km) Time Diff (sec)
1 06/18/2018 15:07:29 -81.36, 177.18 119.53 06/18/2018 15:06:53 -81.37, 177.15 119.55 0.64 36
2 06/18/2018 15:56:55 81.37, -15.08 60.49 06/18/2018 15:57:33 81.37, -15.13 60.50 1.01 38
3 06/21/2018 10:41:46 -81.36,-116.34 119.57 06/21/2018 10:41:10 -81.37,-116.35 119.58 0.43 36
4 06/21/2018 11:31:12 81.37, 51.37 60.45 06/21/2018 11:31:50 81.37, 51.34 60.47 0.77 38
5 06/24/2018 06:16:03 -81.36, -49.89 119.55 06/24/2018 06:15:27 -81.37, -49.87 119.57 0.47 36
6 06/24/2018 07:05:28 81.39, 118.18 60.51 06/24/2018 07:06:06 81.38, 118.19 60.53 0.72 38
7 06/27/2018 01:50:19 -81.36, 16.53 119.49 06/27/2018 01:49:43 -81.37, 16.58 119.50 1.16 36
8 06/27/2018 02:39:44 81.38,-175.43 60.57 06/27/2018 02:40:22 81.38,-175.37 60.59 1.05 38
9 06/29/2018 21:24:35 -81.38, 83.29 119.32 06/29/2018 21:23:59 -81.38, 83.42 119.33 2.15 36




NCC Satellite Simultaneous Nadir Overpasses (SNOs) Prediction Service
